Location: Newark
(35.6799°N, 139.7636°E)
Time: 05:43:13
(UTC+00:00)

Transit 2A - Pass Details

Date: 12 December 2019
Orbit: 601 x 958 km, 66.7° (Epoch: 22 January)

Event Time Altitude Azimuth Distance (km) Brightness Sun altitude
Rises 07:48:00 0° 308° (NW) 2,924 9.4 -4.5°
Reaches altitude 10° 07:51:19 10° 282° (WNW) 2,064 9.2 -5.1°
Maximum altitude 07:53:32 13° 253° (WSW) 1,881 9.7 -5.5°
Drops below altitude 10° 07:55:51 10° 224° (SW) 2,148 9.7 -5.9°
Sets 07:59:27 0° 199° (SSW) 3,145 9.9 -6.6°
